Temperature
28 25 24 25 26 26 26 27 26 27 28 27 26 26 26 26 26 25 25 25 24 24 24 24 23 23 23 22 22 21 21 21 20 20 20 20 20 19 19 19 19 19 19 19
25 25 26 27 28 28 27 26 27 27 28 27 26 26 26 26 26 26 25 25 25 24 24 23 23 23 22 22 22 21 21 21 21 20 20 20 19 19 19 19 19 19 19 19
25 26 28 29 28 27 27 26 27 26 27 27 26 25 25 26 26 26 25 25 25 24 24 23 23 23 22 22 22 21 21 21 21 20 20 19 19 19 19 19 19 19 19 19
26 27 29 28 28 28 26 28 28 28 26 24 26 24 25 25 25 25 25 25 25 24 24 24 23 23 22 22 22 21 21 21 21 20 20 20 19 19 19 19 19 19 19 19
26 28 28 28 29 29 27 28 28 27 25 24 24 24 23 24 24 24 25 25 25 24 24 24 23 23 23 22 22 22 21 21 21 20 20 20 19 19 19 19 19 19 19 18
26 28 28 29 29 30 29 27 26 23 22 23 24 24 23 23 24 24 24 25 25 24 24 24 23 23 23 22 22 22 21 21 20 20 20 20 20 19 19 19 19 19 18 18
26 27 28 29 28 28 27 24 23 23 22 22 23 23 23 24 25 25 25 25 25 24 24 23 23 23 23 22 22 22 21 21 20 20 20 20 20 20 19 19 19 19 19 18
25 25 27 29 28 27 26 24 23 23 22 22 23 23 24 25 26 26 26 25 25 24 23 23 23 23 23 22 22 22 21 21 21 20 20 20 19 19 19 19 19 19 19 18
24 25 27 29 29 28 27 25 23 22 22 22 23 23 24 25 24 24 24 24 24 23 23 23 23 23 23 23 22 22 22 21 21 20 20 20 19 19 19 19 19 19 18 18
25 25 26 28 28 28 27 25 22 22 22 22 23 23 22 23 23 24 23 23 23 23 23 23 23 23 23 23 22 22 22 21 21 20 20 20 19 19 19 19 19 19 18 18
24 24 25 26 27 27 27 26 23 20 21 22 22 22 24 23 23 23 23 23 23 23 23 23 23 23 23 23 22 22 21 21 21 20 20 20 19 19 19 19 19 18 18 18
24 22 22 24 26 27 26 25 22 22 22 20 21 22 24 23 23 23 23 23 23 23 23 23 23 22 22 22 22 22 21 21 21 20 20 20 19 19 19 18 18 18 18 18
24 22 22 23 24 25 26 25 23 21 20 20 21 22 24 23 23 23 23 23 23 23 23 23 22 22 22 22 22 22 21 21 21 20 20 19 19 19 19 18 18 18 18 18
24 21 22 23 23 24 25 26 25 22 21 21 21 22 22 22 22 22 23 23 23 23 23 22 22 22 21 21 21 21 21 21 20 20 19 19 19 19 18 18 18 18 18 17
23 23 23 23 25 25 25 26 26 24 22 22 22 22 22 22 22 22 23 22 22 22 22 22 22 21 21 21 21 21 21 20 20 19 19 19 19 18 18 18 18 17 17 17
21 23 23 24 25 25 25 25 26 25 24 23 23 22 22 22 23 22 22 22 22 22 22 21 21 21 21 21 21 20 20 20 20 19 19 19 19 18 18 18 17 17 17 17
20 21 22 22 24 24 23 24 24 24 24 23 22 22 21 21 21 21 21 22 21 21 22 21 21 21 21 21 21 20 20 20 20 19 19 19 18 18 18 17 17 17 17 16
21 20 19 20 22 23 22 23 24 24 23 23 22 21 21 21 22 22 22 22 21 21 22 22 21 21 21 20 20 20 20 19 19 19 18 18 18 18 17 17 17 17 16 16
20 20 19 19 21 22 23 23 24 23 22 22 21 21 21 22 21 20 21 22 22 22 22 21 21 21 20 20 20 20 19 19 19 18 18 18 18 17 17 17 17 16 16 16
19 19 19 19 21 21 22 23 24 23 21 21 21 21 21 21 19 19 21 22 22 21 21 21 21 20 20 20 19 19 19 19 18 18 18 18 17 17 17 17 17 16 16 16
19 19 19 19 20 20 21 22 23 21 20 21 21 21 21 20 20 20 21 21 21 21 21 21 20 20 19 19 19 18 18 18 18 18 18 17 17 17 17 17 16 16 16 16
18 18 18 17 19 19 20 21 20 19 20 20 20 21 21 21 20 20 20 20 21 20 20 20 19 19 19 18 18 18 18 18 17 17 17 17 17 17 16 16 16 16 15 15
17 17 16 17 17 19 20 20 20 20 20 20 20 20 21 20 20 20 20 20 20 19 19 19 19 19 18 18 18 18 18 17 17 17 17 17 17 16 16 16 16 15 15 15
17 17 16 16 17 18 19 20 20 21 20 20 20 20 20 20 19 19 19 19 19 19 19 19 18 18 18 18 18 18 17 17 17 17 17 16 16 16 16 16 15 15 15 15
17 16 16 16 17 18 19 19 20 20 20 20 20 20 20 19 19 19 18 18 18 18 18 18 18 18 18 17 17 17 17 17 16 16 16 16 16 16 15 15 15 15 15 15
16 16 16 16 17 17 18 19 19 19 19 19 19 19 19 19 18 18 18 18 18 17 17 17 17 17 17 17 17 17 16 16 16 16 16 16 16 15 15 15 15 15 15 15
Wind_Speed
2 2 4 9 8 7 6 4 5 6 3 3 5 5 9 10 9 10 9 10 11 11 9 10 11 13 12 10 9 8 7 6 5 4 4 3 2 2 2 2 2 3 3 4
3 5 11 10 8 6 5 5 4 5 2 3 3 4 7 10 13 14 14 12 12 10 9 10 10 11 11 10 9 8 7 6 6 4 4 3 3 2 2 1 1 2 2 3
8 10 8 6 7 7 6 6 6 5 3 1 3 1 3 4 5 8 10 11 11 14 14 13 11 10 10 10 10 9 7 6 6 5 3 3 2 2 1 1 1 1 2 2
7 9 6 6 7 6 6 7 6 5 2 1 2 2 5 5 5 8 10 10 11 12 13 13 13 12 11 10 9 8 7 6 6 6 5 6 4 3 3 2 2 1 1 2
7 6 5 7 8 6 7 6 3 2 4 0 1 2 6 3 5 8 10 12 12 12 14 13 13 13 12 11 10 8 7 6 6 6 6 6 4 3 2 2 2 1 0 1
9 7 5 6 5 3 3 3 5 5 5 1 4 3 5 6 11 10 9 11 12 13 13 12 11 11 10 10 9 8 8 6 6 6 6 6 6 5 4 3 3 1 1 0
8 7 5 3 2 4 3 5 4 5 4 5 4 2 7 9 10 11 12 12 12 13 12 12 12 12 12 12 11 9 9 7 6 6 6 6 6 6 6 4 4 3 1 1
3 7 5 3 5 5 3 8 7 4 4 5 4 4 7 7 6 7 8 9 11 12 11 12 13 13 13 13 12 10 10 8 7 6 6 5 5 4 4 4 4 3 2 2
5 6 6 4 3 6 3 3 8 7 2 1 4 4 6 2 4 5 6 8 11 12 12 11 11 11 11 12 12 12 11 8 8 7 6 5 5 5 4 4 3 3 2 2
6 3 7 5 3 1 6 7 6 5 4 2 3 3 4 4 4 5 7 8 8 10 10 10 10 10 11 11 11 11 10 10 8 7 6 5 5 4 5 4 4 3 3 2
6 4 6 4 0 3 1 3 5 5 5 5 2 6 5 7 6 8 8 7 8 10 10 10 9 9 10 10 10 10 9 8 7 7 6 5 5 4 4 4 4 4 3 3
5 5 3 6 6 4 4 5 7 5 3 5 4 7 6 6 5 7 8 8 7 9 9 9 8 9 9 10 10 9 9 8 8 7 6 6 5 4 4 4 3 3 3 3
5 6 1 6 7 5 1 1 4 5 5 5 4 6 3 4 4 6 7 8 7 9 9 8 7 8 8 9 9 9 8 8 7 7 6 5 5 5 4 3 3 3 3 2
6 5 7 8 7 3 2 3 1 5 4 4 5 5 3 2 4 5 6 7 8 8 9 9 7 6 6 6 7 8 7 7 7 7 6 6 5 5 5 4 4 3 3 3
5 3 4 5 4 1 2 4 2 2 6 7 7 7 9 8 7 7 8 7 8 8 9 9 8 7 7 5 5 6 7 7 7 7 6 6 5 5 4 4 4 3 3 3
4 3 2 2 2 3 4 5 2 1 3 5 5 5 5 5 5 6 8 9 9 8 8 8 8 8 8 7 6 5 5 6 7 6 5 5 5 4 4 4 3 3 3 3
2 3 2 2 3 4 4 4 1 0 1 5 5 6 5 6 7 8 8 8 8 8 9 9 7 7 6 6 6 6 5 5 6 6 5 5 5 5 4 4 4 4 4 3
4 3 3 1 2 2 6 3 3 3 1 1 4 5 6 7 6 5 6 8 8 7 8 8 7 6 4 4 5 5 4 4 5 5 5 5 5 5 4 3 4 4 3 3
5 6 3 3 3 3 4 4 1 2 2 1 6 7 6 6 7 3 2 6 8 8 8 7 7 7 6 5 5 5 4 3 3 3 4 5 5 5 5 5 5 4 4 3
5 6 5 3 3 4 4 6 1 5 1 2 6 8 7 6 4 3 3 6 7 6 6 6 6 6 6 5 5 5 4 4 3 3 4 4 5 5 5 6 5 4 4 4
4 4 3 3 3 3 5 6 4 3 5 2 3 6 6 4 4 5 4 5 6 6 6 6 7 6 4 4 5 4 3 4 4 4 3 3 4 4 5 5 4 5 4 4
2 2 1 2 2 4 6 4 2 4 1 2 3 4 6 7 5 4 5 5 6 6 5 5 5 5 4 5 6 5 4 4 2 3 2 2 3 4 3 4 4 4 4 4
1 4 4 4 4 5 2 2 2 4 4 3 4 5 7 7 5 5 5 5 4 4 4 4 5 4 4 4 5 6 5 4 3 3 3 3 2 2 2 3 4 3 4 4
4 2 3 2 1 1 2 4 3 4 5 4 5 5 6 6 4 4 4 5 4 3 3 3 3 3 3 3 4 5 4 4 4 3 3 2 2 2 2 2 3 4 4 4
3 1 2 1 1 2 4 2 2 3 4 5 5 5 4 5 4 4 4 3 3 3 2 3 3 3 4 3 3 3 3 4 3 3 2 2 2 2 2 2 3 4 5 6
2 2 3 4 5 3 2 2 2 3 3 3 4 3 3 3 4 3 3 2 3 3 2 2 2 3 2 2 2 2 2 4 4 2 2 2 2 2 2 2 2 4 4 6
Wind_Direction
286 106 228 233 220 217 231 242 256 265 230 160 173 180 180 175 171 168 163 162 166 172 169 160 158 155 149 147 146 150 148 151 145 140 141 142 152 147 141 164 161 157 159 159
346 257 239 231 240 238 246 252 256 286 252 152 161 197 190 180 179 175 173 176 171 164 159 161 159 158 155 155 155 154 157 158 158 161 160 154 153 160 155 147 132 143 148 162
227 248 243 229 234 239 248 217 216 227 295 44 101 350 201 202 170 170 174 177 175 171 167 164 163 163 160 161 162 162 163 162 163 156 134 120 98 85 85 90 135 165 139 147
254 262 263 254 235 213 247 231 216 203 118 253 133 214 256 205 193 182 179 178 180 173 166 165 166 166 166 167 162 160 160 160 162 155 149 149 152 160 179 175 172 176 141 145
263 269 270 261 249 204 224 226 202 167 145 174 359 145 270 204 197 203 192 185 178 173 171 169 168 168 168 166 164 162 155 157 159 156 158 154 158 163 153 140 135 136 109 119
259 268 240 237 259 216 193 50 34 54 77 347 253 172 256 210 203 204 198 191 178 173 174 170 167 165 163 164 161 158 156 162 162 159 157 160 160 153 141 137 144 152 140 132
297 290 268 238 302 321 80 85 33 3 16 259 271 195 242 230 205 194 197 193 180 169 168 167 165 167 168 166 164 162 163 168 168 165 163 163 160 155 158 161 164 158 156 153
252 287 273 246 197 203 188 135 153 190 221 274 313 243 259 249 200 179 172 168 163 161 163 164 167 170 170 169 167 166 168 171 170 166 166 163 159 159 164 162 158 168 180 181
192 254 279 276 231 161 164 170 164 141 168 249 283 290 317 11 100 136 155 155 162 163 163 164 167 168 168 168 171 171 170 171 173 172 163 161 163 160 160 156 152 160 167 162
170 241 287 292 20 83 163 155 96 114 153 245 286 267 231 227 185 159 153 156 163 158 159 161 164 168 168 169 169 169 170 172 172 168 166 165 161 160 156 150 155 161 163 155
159 176 296 349 167 215 162 113 116 125 149 154 242 268 231 207 180 163 165 159 160 166 165 166 170 170 167 161 164 167 169 165 164 165 163 159 161 157 150 155 164 163 166 167
167 140 251 268 264 210 165 176 145 148 199 162 172 259 270 190 170 151 147 147 149 158 161 161 163 160 159 163 164 166 167 166 169 168 162 162 159 150 149 161 180 177 175 177
137 118 92 333 335 351 22 195 150 138 134 155 170 257 296 145 136 136 141 149 150 142 140 144 145 153 159 166 166 168 171 170 164 159 159 160 161 161 169 176 180 180 177 176
125 120 161 196 224 237 301 309 147 128 154 184 205 228 267 179 154 146 149 153 145 140 138 139 140 140 140 148 162 162 163 159 157 155 161 168 175 178 181 179 181 186 178 170
103 136 187 208 220 178 277 284 277 166 181 176 203 202 214 194 179 166 153 145 137 135 138 146 149 144 140 138 140 149 153 156 159 159 170 181 183 180 177 176 183 184 181 177
78 135 101 342 349 35 339 314 306 226 178 177 171 213 214 167 139 136 140 137 138 143 148 151 145 142 147 154 157 150 149 157 153 160 178 184 179 172 176 182 182 183 194 187
65 113 107 277 311 32 324 291 220 98 178 165 186 206 156 131 148 153 149 139 141 144 148 151 151 151 160 166 158 152 157 151 146 160 176 181 182 180 185 185 181 193 200 189
142 115 134 164 57 217 241 247 140 111 50 121 138 152 149 153 151 140 143 141 145 143 137 141 142 140 148 148 147 147 140 142 156 169 182 185 178 180 185 186 198 205 199 197
152 144 132 134 180 253 300 311 307 122 337 67 125 129 131 116 88 54 137 147 152 148 142 143 146 142 136 132 136 139 136 144 151 174 180 183 179 182 194 205 209 208 195 205
70 107 123 134 154 220 262 293 286 99 313 290 142 141 142 114 119 226 189 141 134 131 135 140 134 122 126 135 134 134 154 160 185 202 195 189 182 187 201 208 209 205 197 204
25 39 101 150 186 252 283 317 32 112 230 277 135 135 134 140 180 184 166 142 133 133 136 132 129 131 146 143 132 135 163 197 207 204 189 190 193 200 210 211 209 203 198 198
134 113 122 123 132 259 305 13 97 205 194 80 80 97 109 110 111 122 132 133 127 129 131 136 139 145 154 150 143 153 193 215 201 181 187 210 219 219 214 204 215 205 197 198
126 176 173 171 198 247 311 112 136 120 101 86 88 94 109 112 120 126 125 126 130 138 142 147 151 154 161 167 163 170 199 193 181 186 210 233 241 231 210 200 208 203 201 211
333 27 80 55 27 38 53 58 58 88 103 99 99 99 102 109 117 128 128 130 135 138 138 129 135 168 192 193 187 193 200 190 176 192 217 230 228 248 246 226 205 202 211 218
279 25 71 102 259 7 4 22 95 86 91 91 90 97 108 115 132 139 135 140 143 138 148 157 173 196 211 208 208 209 193 167 170 197 215 225 229 230 245 245 233 217 219 212
288 170 159 215 231 184 250 304 84 92 99 104 106 100 97 124 135 121 121 141 143 139 148 158 174 184 197 195 209 231 196 170 172 199 225 233 235 233 231 235 277 277 250 247
Height
1487 1494 1500 1495 1492 1494 1496 1499 1500 1492 1483 1488 1491 1493 1492 1492 1494 1496 1497 1499 1501 1502 1505 1507 1509 1510 1512 1515 1516 1518 1519 1520 1521 1522 1523 1524 1524 1525 1526 1526 1527 1527 1527 1527
1493 1496 1487 1484 1485 1488 1492 1498 1497 1490 1482 1487 1492 1493 1489 1489 1490 1492 1495 1497 1499 1501 1504 1506 1508 1510 1511 1513 1515 1517 1518 1519 1520 1521 1522 1523 1523 1524 1525 1526 1526 1526 1527 1527
1495 1487 1479 1482 1486 1490 1492 1495 1494 1494 1486 1485 1493 1500 1494 1491 1490 1492 1494 1495 1497 1498 1501 1504 1506 1508 1510 1512 1513 1515 1516 1518 1519 1520 1521 1522 1522 1523 1524 1525 1525 1526 1526 1526
1486 1478 1478 1481 1483 1485 1494 1482 1482 1486 1496 1505 1500 1519 1501 1493 1491 1490 1492 1493 1495 1497 1499 1501 1504 1506 1508 1510 1512 1514 1515 1516 1517 1518 1519 1519 1520 1521 1522 1523 1524 1525 1525 1525
1485 1477 1478 1481 1477 1477 1483 1476 1479 1484 1496 1505 1503 1514 1508 1494 1494 1490 1488 1490 1491 1494 1496 1499 1501 1504 1506 1509 1511 1513 1514 1515 1516 1517 1517 1518 1519 1520 1521 1522 1523 1524 1524 1524
1477 1471 1472 1473 1470 1470 1473 1478 1483 1492 1504 1520 1509 1513 1512 1496 1488 1485 1485 1487 1489 1491 1494 1497 1500 1502 1505 1508 1510 1511 1513 1514 1515 1515 1516 1517 1518 1519 1520 1521 1522 1522 1523 1523
1482 1473 1468 1468 1473 1472 1475 1496 1517 1521 1529 1525 1506 1508 1504 1482 1477 1478 1480 1483 1485 1488 1492 1495 1497 1500 1503 1505 1507 1509 1511 1512 1514 1514 1515 1516 1517 1518 1519 1520 1521 1521 1522 1522
1496 1493 1472 1466 1471 1477 1479 1493 1519 1531 1533 1524 1507 1508 1492 1475 1473 1474 1476 1479 1483 1487 1490 1492 1495 1498 1500 1503 1505 1508 1510 1511 1512 1513 1514 1515 1517 1518 1518 1519 1520 1520 1521 1521
1494 1491 1468 1463 1462 1467 1479 1488 1491 1511 1518 1524 1515 1501 1486 1474 1474 1475 1477 1480 1483 1485 1488 1491 1494 1496 1499 1501 1503 1506 1508 1509 1511 1512 1513 1514 1515 1516 1517 1518 1519 1519 1520 1520
1477 1487 1473 1464 1462 1464 1469 1477 1496 1511 1526 1530 1519 1509 1502 1486 1481 1477 1479 1480 1483 1485 1487 1490 1493 1495 1497 1499 1502 1504 1506 1508 1509 1511 1512 1513 1515 1516 1516 1517 1518 1518 1519 1519
1471 1485 1481 1473 1473 1475 1474 1479 1490 1506 1512 1526 1530 1515 1482 1479 1477 1477 1477 1479 1482 1484 1486 1489 1492 1494 1496 1498 1501 1503 1505 1507 1508 1510 1511 1512 1513 1514 1515 1516 1517 1517 1518 1518
1467 1483 1492 1480 1467 1462 1468 1475 1486 1504 1510 1513 1521 1510 1473 1473 1474 1474 1476 1479 1481 1483 1486 1489 1491 1493 1495 1497 1499 1501 1503 1505 1507 1508 1510 1511 1512 1513 1514 1514 1515 1516 1516 1516
1465 1483 1500 1495 1485 1472 1471 1472 1477 1488 1501 1511 1517 1504 1473 1472 1475 1475 1477 1479 1481 1482 1484 1488 1490 1492 1494 1496 1498 1500 1502 1503 1505 1507 1509 1510 1511 1512 1512 1513 1513 1514 1514 1515
1459 1479 1491 1499 1492 1479 1477 1474 1473 1485 1501 1505 1501 1493 1481 1476 1475 1476 1477 1478 1479 1481 1483 1486 1489 1491 1494 1495 1497 1498 1500 1502 1504 1506 1507 1508 1509 1510 1510 1511 1511 1512 1512 1513
1459 1475 1475 1474 1470 1470 1472 1472 1470 1477 1484 1492 1488 1486 1479 1473 1473 1475 1476 1478 1480 1481 1483 1486 1487 1490 1492 1495 1496 1497 1499 1500 1502 1504 1505 1506 1507 1508 1508 1509 1509 1510 1510 1510
1462 1472 1472 1474 1467 1468 1472 1469 1467 1469 1472 1476 1477 1479 1470 1470 1472 1474 1476 1477 1479 1481 1483 1485 1487 1488 1490 1492 1494 1496 1497 1498 1500 1502 1503 1505 1506 1506 1506 1507 1507 1507 1507 1508
1467 1473 1481 1485 1473 1474 1484 1473 1469 1469 1468 1470 1477 1474 1469 1472 1473 1474 1475 1476 1478 1479 1481 1484 1486 1488 1489 1490 1492 1494 1496 1497 1498 1499 1500 1502 1503 1503 1504 1504 1504 1505 1505 1505
1466 1474 1484 1487 1484 1496 1482 1464 1462 1465 1466 1465 1466 1467 1469 1470 1472 1474 1474 1475 1477 1479 1480 1483 1485 1487 1489 1490 1491 1492 1494 1495 1496 1497 1498 1499 1500 1500 1501 1501 1502 1502 1502 1502
1457 1469 1482 1491 1493 1487 1474 1464 1462 1467 1472 1466 1466 1468 1469 1469 1472 1476 1476 1476 1476 1478 1479 1482 1484 1485 1487 1488 1490 1491 1493 1494 1494 1495 1496 1496 1497 1497 1498 1498 1498 1499 1499 1499
1458 1463 1478 1488 1491 1494 1479 1463 1459 1464 1476 1467 1465 1466 1468 1469 1478 1478 1476 1476 1476 1478 1479 1481 1483 1484 1485 1486 1488 1489 1491 1491 1491 1492 1493 1494 1494 1495 1494 1495 1495 1495 1496 1495
1472 1475 1481 1486 1490 1484 1470 1462 1460 1479 1479 1468 1466 1465 1467 1469 1472 1473 1474 1475 1476 1478 1479 1480 1482 1483 1484 1485 1486 1488 1489 1489 1489 1490 1490 1491 1492 1492 1492 1492 1492 1492 1492 1492
1478 1482 1485 1488 1492 1489 1466 1464 1469 1472 1467 1467 1466 1466 1466 1467 1470 1473 1473 1474 1476 1477 1479 1480 1481 1482 1483 1484 1485 1486 1486 1487 1488 1488 1488 1488 1488 1488 1488 1488 1488 1488 1488 1488
1474 1475 1478 1480 1483 1472 1467 1466 1467 1466 1466 1467 1466 1466 1467 1468 1470 1472 1473 1474 1475 1477 1478 1479 1479 1480 1481 1482 1483 1483 1484 1484 1485 1485 1485 1485 1484 1484 1485 1485 1485 1484 1484 1484
1472 1469 1473 1476 1473 1469 1468 1468 1468 1467 1466 1467 1466 1467 1468 1469 1470 1471 1472 1472 1473 1475 1476 1477 1478 1478 1478 1479 1480 1481 1482 1482 1481 1481 1481 1481 1481 1481 1481 1481 1481 1481 1480 1480
1473 1472 1475 1477 1473 1470 1469 1468 1469 1468 1468 1467 1467 1468 1468 1469 1470 1471 1471 1472 1472 1474 1475 1475 1476 1476 1476 1477 1477 1478 1478 1478 1478 1478 1479 1478 1478 1478 1478 1478 1478 1477 1477 1477
1471 1472 1475 1475 1470 1470 1470 1468 1468 1468 1468 1467 1467 1467 1468 1469 1469 1470 1470 1471 1472 1472 1473 1474 1474 1474 1474 1474 1474 1474 1475 1474 1475 1475 1475 1475 1475 1475 1475 1474 1474 1473 1473 1473